Stations météo

Publicité
Nimes-Garons, France (7646): Température de l'air & dewpoint: 25.10.2020 23:00:00 - 31.10.2020 23:00:00 (CET)Nimes-Garons, France (7646): Vitesse du vent & gusts: 25.10.2020 23:00:00 - 31.10.2020 23:00:00 (CET)Nimes-Garons, France (7646): Direction du vent: 25.10.2020 23:00:00 - 31.10.2020 23:00:00 (CET)Nimes-Garons, France (7646): reduced air pressure: 25.10.2020 23:00:00 - 31.10.2020 23:00:00 (CET)Nimes-Garons, France (7646): visibility: 25.10.2020 23:00:00 - 31.10.2020 23:00:00 (CET)Nimes-Garons, France (7646): Quantités de précipitations: 25.10.2020 23:00:00 - 31.10.2020 23:00:00 (CET)
Date & Time tt [°C] td [°C] ff [km/h] ff [knt] fx [km/h] fx [knt] dd ppp [hPa] vv [km] rr [mm]
31.10.2020 23:00:00 12,3 10,7 4 2 11 6 ESE 1024,1 17 0,0
31.10.2020 22:00:00 12,1 11,2 5 3 9 5 WNW 1024,6 16 0,0
31.10.2020 21:00:00 10,4 9,0 2 1 13 7 SW 1024,2 8 0,0
31.10.2020 20:00:00 12,1 10,0 2 1 8 5 WSW 1024,1 1,9 0,0
31.10.2020 19:00:00 13,9 11,8 4 2 9 5 WSW 1024,0 16 0,0
31.10.2020 18:00:00 14,2 12,1 8 4 15 8 SSW 1023,4 18 0,0
31.10.2020 17:00:00 15,6 12,2 7 4 19 10 SSW 1023,4 26 0,0
31.10.2020 16:00:00 16,6 12,5 8 4 16 8 SSE 1023,4 15 0,0
31.10.2020 15:00:00 16,8 12,7 5 3 12 7 S 1023,6 20 0,0
31.10.2020 14:00:00 16,6 12,3 8 4 18 10 SE 1024,1 20 0,0
31.10.2020 13:00:00 16,7 13,0 8 4 23 12 SSE 1024,7 20 0,0
31.10.2020 12:00:00 15,8 12,5 5 3 11 6 ESE 1025,2 23 0,0
31.10.2020 11:00:00 14,1 11,8 5 3 11 6 NE 1025,6 14 0,0
31.10.2020 10:00:00 12,7 11,3 8 4 14 7 ENE 1025,6 17 0,0
31.10.2020 09:00:00 11,7 10,6 9 5 14 8 NE 1025,8 16 0,0
31.10.2020 08:00:00 10,8 10,0 7 4 13 7 NE 1025,3 14 0,0
31.10.2020 07:00:00 9,9 9,1 4 2 16 9 NE 1024,9 16 0,0
31.10.2020 06:00:00 10,1 9,3 9 5 14 8 NE 1024,5 33 0,0
31.10.2020 05:00:00 8,5 7,9 4 2 6 4 NE 1024,7 0,8 0,0
31.10.2020 04:00:00 9,2 8,3 5 3 8 4 NNE 1024,7 19 0,0
31.10.2020 03:00:00 9,8 8,7 5 3 8 5 NNW 1025,0 20 0,0
31.10.2020 02:00:00 11,2 10,4 3 1 9 5 NNW 1025,1 16 0,0
31.10.2020 01:00:00 10,7 9,3 8 5 10 5 W 1025,3 39 0,0
31.10.2020 00:00:00 11,0 9,9 5 3 8 5 WSW 1025,0 48 0,0
30.10.2020 23:00:00 11,5 9,9 3 2 7 4 NW 1025,1 59 0,0
30.10.2020 22:00:00 12,0 9,6 3 2 8 4 WSW 1025,1 60 0,0
30.10.2020 21:00:00 13,5 9,7 6 4 10 5 SW 1024,9 60 0,0
30.10.2020 20:00:00 12,9 9,0 5 3 8 4 WSW 1024,6 60 0,0
30.10.2020 19:00:00 14,8 9,2 2 1 6 4 SW 1024,3 60 0,0
30.10.2020 18:00:00 16,5 9,2 4 2 11 6 W 1023,7 60 0,0
30.10.2020 17:00:00 19,8 9,7 5 3 17 9 WSW 1023,2 60 0,0
30.10.2020 16:00:00 24,1 10,4 4 2 8 4 SW 1022,9 54 0,0
30.10.2020 15:00:00 23,2 10,6 5 3 14 7 WNW 1022,8 42 0,0
30.10.2020 14:00:00 22,7 10,5 6 3 17 9 WNW 1023,2 55 0,0
30.10.2020 13:00:00 21,5 10,3 10 5 21 11 N 1023,6 60 0,0
30.10.2020 12:00:00 20,1 10,8 9 5 26 14 NNW 1024,4 60 0,0
30.10.2020 11:00:00 18,4 10,5 14 8 29 16 N 1024,9 60 0,0
30.10.2020 10:00:00 16,7 9,9 18 10 31 17 N 1025,1 60 0,0
30.10.2020 09:00:00 14,5 9,3 12 7 20 11 NW 1025,1 60 0,0
30.10.2020 08:00:00 11,9 8,6 14 7 21 12 NW 1024,7 57 0,0
30.10.2020 07:00:00 10,0 7,6 9 5 25 13 NW 1024,3 60 0,0
30.10.2020 06:00:00 11,0 8,6 16 9 24 13 NNW 1024,4 60 0,0
30.10.2020 05:00:00 10,8 7,7 9 5 23 13 WNW 1024,5 59 0,0
30.10.2020 04:00:00 11,1 8,1 13 7 22 12 NNW 1024,1 60 0,0
30.10.2020 03:00:00 12,6 8,7 14 7 23 13 WNW 1024,4 60 0,0
30.10.2020 02:00:00 12,0 8,7 15 8 27 15 NNW 1024,3 60 0,0
30.10.2020 01:00:00 12,5 8,8 11 6 29 16 WNW 1024,6 60 0,0
30.10.2020 00:00:00 13,7 8,9 18 10 31 17 N 1024,5 60 0,0
29.10.2020 23:00:00 14,3 8,9 11 6 35 19 NW 1024,9 60 0,0
29.10.2020 22:00:00 15,1 8,8 16 9 27 15 N 1025,0 60 0,0
29.10.2020 21:00:00 13,8 8,8 12 7 20 11 N 1024,8 60 0,0
29.10.2020 20:00:00 14,6 9,2 13 7 21 12 NNE 1024,7 60 0,0
29.10.2020 19:00:00 15,5 9,4 6 4 10 6 NE 1024,6 60 0,0
29.10.2020 18:00:00 16,7 9,4 4 2 18 10 N 1024,1 20 0,0
29.10.2020 17:00:00 19,1 8,7 13 7 32 17 NW 1023,6 60 0,0
29.10.2020 16:00:00 20,5 8,8 15 8 34 18 NW 1023,2 60 0,0
29.10.2020 15:00:00 21,0 9,6 14 7 36 19 NW 1023,1 60 0,0
29.10.2020 14:00:00 20,8 9,7 17 9 37 20 NW 1023,4 60 0,0
29.10.2020 13:00:00 20,5 9,1 17 9 36 19 NW 1023,8 59 0,0
29.10.2020 12:00:00 19,8 9,1 22 12 39 21 NW 1024,1 51 0,0
29.10.2020 11:00:00 18,7 8,9 17 9 34 19 NW 1024,2 42 0,0
29.10.2020 10:00:00 17,9 9,0 17 9 31 17 NW 1024,2 60 0,0
29.10.2020 09:00:00 16,0 9,2 11 6 24 13 WNW 1024,1 52 0,0
29.10.2020 08:00:00 14,1 8,3 11 6 22 12 WNW 1023,6 60 0,0
29.10.2020 07:00:00 13,9 8,1 14 8 41 22 NW 1023,2 60 0,0
29.10.2020 06:00:00 12,9 8,2 12 6 37 20 WNW 1023,0 59 0,0
29.10.2020 05:00:00 13,8 8,4 17 9 32 17 W 1022,3 60 0,0
29.10.2020 04:00:00 13,4 8,2 10 5 26 14 WNW 1022,6 60 0,0
29.10.2020 03:00:00 13,2 8,3 11 6 20 11 WNW 1022,6 60 0,0
29.10.2020 02:00:00 13,6 8,2 12 6 33 18 W 1022,9 60 0,0
29.10.2020 01:00:00 12,7 8,8 11 6 31 17 WNW 1022,6 60 0,0
29.10.2020 00:00:00 12,6 9,4 8 5 18 10 NW 1022,4 57 0,0
28.10.2020 23:00:00 12,4 10,1 8 5 15 8 WNW 1022,6 15 0,0
28.10.2020 22:00:00 12,4 10,6 9 5 14 8 NW 1021,6 26 0,0
28.10.2020 21:00:00 13,1 11,3 8 4 16 8 W 1021,4 20 0,0
28.10.2020 20:00:00 13,7 11,6 7 4 14 7 W 1021,0 30 0,0
28.10.2020 19:00:00 14,1 11,4 6 3 8 5 SW 1020,4 60 0,0
28.10.2020 18:00:00 15,5 12,1 4 2 14 7 SW 1019,6 47 0,0
28.10.2020 17:00:00 17,5 12,2 6 4 18 10 S 1019,0 60 0,0
28.10.2020 16:00:00 18,2 12,0 9 5 18 10 WSW 1019,0 38 0,0
28.10.2020 15:00:00 18,2 10,8 11 6 22 12 WSW 1018,8 28 0,0
28.10.2020 14:00:00 19,0 10,8 8 4 16 9 W 1019,1 17 0,0
28.10.2020 13:00:00 18,6 9,9 4 2 13 7 NE 1019,5 48 0,0
28.10.2020 12:00:00 17,7 9,8 4 2 15 8 WNW 1020,0 53 0,0
28.10.2020 11:00:00 16,0 9,6 6 3 13 7 NE 1019,9 35 0,0
28.10.2020 10:00:00 12,8 8,5 6 3 10 6 N 1020,0 45 0,0
28.10.2020 09:00:00 11,6 8,4 9 5 15 8 NE 1019,5 43 0,0
28.10.2020 08:00:00 9,3 8,5 4 2 8 4 N 1018,9 13 0,0
28.10.2020 07:00:00 9,6 7,7 4 2 10 5 NE 1017,9 25 0,0
28.10.2020 06:00:00 10,2 8,3 7 4 16 9 E 1017,8 20 0,0
28.10.2020 05:00:00 10,5 8,8 5 3 8 5 SE 1017,4 20 0,0
28.10.2020 04:00:00 10,2 9,0 5 3 10 5 ENE 1016,7 50 0,4
28.10.2020 03:00:00 11,1 8,5 8 5 11 6 ESE 1016,4 52 0,0
28.10.2020 02:00:00 10,8 7,8 4 2 8 4 SW 1016,6 60 0,0
28.10.2020 01:00:00 11,7 7,8 5 3 10 5 W 1016,4 60 0,0
28.10.2020 00:00:00 11,9 7,6 5 3 11 6 WSW 1016,3 60 0,0
27.10.2020 23:00:00 12,3 7,6 6 4 14 8 W 1016,4 60 0,0
27.10.2020 22:00:00 12,5 7,6 10 5 20 11 W 1016,2 60 0,0
27.10.2020 21:00:00 12,7 7,8 10 5 16 8 SW 1015,7 60 0,0
27.10.2020 20:00:00 12,7 7,6 4 2 10 5 WSW 1015,3 60 0,0
27.10.2020 19:00:00 13,0 7,4 6 3 15 8 WSW 1015,1 60 0,0
27.10.2020 18:00:00 13,8 5,9 6 4 12 7 SW 1014,7 60 0,0
27.10.2020 17:00:00 16,3 6,1 8 4 23 13 W 1013,9 20 0,0
27.10.2020 16:00:00 17,3 5,9 12 7 27 15 W 1013,6 60 0,0
27.10.2020 15:00:00 17,7 5,9 13 7 32 17 WNW 1013,7 60 0,0
27.10.2020 14:00:00 17,1 5,7 12 7 29 16 WNW 1014,0 60 0,0
27.10.2020 13:00:00 16,3 6,1 10 5 26 14 WNW 1014,4 19 0,0
27.10.2020 12:00:00 15,7 5,6 12 7 27 15 NNW 1015,2 60 0,0
27.10.2020 11:00:00 15,4 4,7 15 8 26 14 WNW 1015,4 60 0,0
27.10.2020 10:00:00 13,4 6,5 10 5 18 10 W 1015,2 60 0,0
27.10.2020 09:00:00 10,8 6,3 8 4 14 7 W 1015,1 60 0,0
27.10.2020 08:00:00 8,4 6,2 5 3 13 7 W 1014,7 60 0,0
27.10.2020 07:00:00 6,5 4,5 7 4 17 9 NW 1014,1 60 0,0
27.10.2020 06:00:00 7,6 4,5 10 5 20 11 W 1013,5 60 0,0
27.10.2020 05:00:00 8,0 4,0 10 6 19 10 W 1013,2 60 0,0
27.10.2020 04:00:00 8,2 4,2 9 5 19 10 WNW 1012,9 60 0,0
27.10.2020 03:00:00 8,5 4,7 10 5 19 10 W 1013,0 60 0,0
27.10.2020 02:00:00 9,0 4,2 9 5 26 14 W 1013,0 60 0,0
27.10.2020 01:00:00 9,7 4,3 12 7 23 13 W 1013,1 60 0,0
27.10.2020 00:00:00 9,9 4,3 11 6 30 16 WNW 1013,3 60 0,0
26.10.2020 23:00:00 11,4 3,9 16 9 39 21 WNW 1013,1 60 0,0
26.10.2020 22:00:00 12,0 4,2 19 11 36 20 WNW 1012,7 60 0,0
26.10.2020 21:00:00 11,0 4,7 12 7 26 14 W 1011,8 60 0,0
26.10.2020 20:00:00 11,9 4,4 15 8 33 18 WNW 1011,4 60 0,0
26.10.2020 19:00:00 12,5 4,5 18 10 36 19 NW 1010,6 60 0,0
26.10.2020 18:00:00 13,4 4,8 15 8 34 18 WNW 1009,5 60 0,0
26.10.2020 17:00:00 15,6 6,6 16 9 35 19 NNW 1008,6 57 0,0
26.10.2020 16:00:00 16,3 8,3 6 4 31 17 NNE 1008,1 60 0,0
26.10.2020 15:00:00 16,2 6,3 14 8 33 18 NNW 1007,8 52 0,0
26.10.2020 14:00:00 15,6 6,6 14 8 29 15 N 1008,2 60 0,0
26.10.2020 13:00:00 15,5 8,5 14 7 34 19 NNW 1008,7 60 0,0
26.10.2020 12:00:00 14,3 8,9 11 6 26 14 NW 1009,4 60 0,0
26.10.2020 11:00:00 14,0 9,2 12 6 28 15 NNW 1009,3 60 0,0
26.10.2020 10:00:00 11,5 8,9 19 10 27 15 N 1009,5 60 0,0
26.10.2020 09:00:00 10,9 9,7 13 7 27 15 NNW 1009,4 57 0,2
26.10.2020 08:00:00 10,7 9,1 19 10 32 17 NNW 1008,5 53 0,0
26.10.2020 07:00:00 10,6 9,0 17 9 23 13 NNW 1007,7 58 0,2
26.10.2020 06:00:00 11,0 9,6 8 5 14 8 WNW 1007,5 60 0,0
26.10.2020 05:00:00 11,4 9,5 0 0 10 6 N 1007,0 60 0,4
26.10.2020 04:00:00 12,2 10,6 2 1 38 20 N 1006,8 8 1,6
26.10.2020 03:00:00 13,7 12,4 16 8 26 14 W 1006,4 19 0,0
26.10.2020 02:00:00 14,1 13,0 8 5 20 11 W 1005,7 16 0,0
26.10.2020 01:00:00 16,0 14,2 13 7 30 16 S 1005,6 17 0,0
26.10.2020 00:00:00 16,0 14,5 13 7 23 12 SSE 1005,9 18 0,0
25.10.2020 23:00:00 15,0 13,5 6 3 18 10 ESE 1006,7 16 0,0

tt = Température de l'air
td = dewpoint
ff = Vitesse du vent
fx = gusts
dd = Direction du vent
ppp = reduced air pressure
vv = visibility
rr = Quantités de précipitations

stations d'obs. à proximité